Theta_e
308 308 309 309 309 309 309 310 310 309 310 310 310 311 310 310 310 310 312 312 312 314 315 315 315 314 315 320 324 323 318 317 318 319 319 322 318 322 324 326 343 346 340 345 344
307 308 309 309 309 309 309 309 309 310 310 310 311 310 310 310 311 312 317 314 312 314 315 316 313 314 316 319 323 321 314 317 317 319 319 320 319 322 323 322 347 347 342 347 343
308 308 308 309 309 309 309 309 310 311 311 312 312 312 312 312 312 321 318 315 313 316 316 317 315 314 314 315 318 319 318 319 320 322 322 320 321 323 322 320 343 338 348 345 342
308 307 308 309 309 310 310 310 311 312 312 313 313 313 313 312 310 321 319 318 315 316 316 313 314 313 313 313 317 316 318 320 322 323 322 319 322 322 323 322 333 344 350 347 348
307 307 308 309 309 310 311 311 312 312 312 312 312 312 312 313 313 314 317 318 316 315 314 313 313 315 314 315 317 316 316 319 321 322 322 322 320 321 322 323 323 343 339 335 343
308 307 308 308 309 309 310 311 311 311 311 312 312 312 312 313 315 318 319 317 315 315 313 314 315 317 317 317 315 319 317 318 319 320 319 319 319 320 323 323 323 324 342 343 337
310 310 309 308 309 309 309 310 310 310 311 311 311 313 313 313 314 319 318 318 318 320 318 315 317 317 318 315 317 317 315 314 316 319 318 319 318 318 322 323 323 322 323 327 348
310 309 310 310 309 309 310 310 310 313 314 313 313 312 311 313 317 318 319 319 317 317 317 319 319 318 318 319 318 314 314 315 315 318 320 319 317 317 322 322 322 322 323 323 323
314 312 311 310 310 310 310 310 311 314 316 314 312 315 317 320 318 319 319 320 317 317 316 317 318 319 320 315 311 311 313 315 315 317 317 318 317 317 322 322 321 323 322 322 323
316 315 315 312 310 310 311 310 315 318 318 318 316 317 317 320 321 321 320 319 317 318 317 317 320 315 311 310 314 313 314 314 315 317 317 316 315 316 320 319 321 322 323 322 322
316 316 316 316 310 310 312 314 315 317 315 314 315 315 319 321 322 321 318 318 318 318 316 318 313 312 311 312 313 314 315 315 315 316 317 316 316 316 319 319 318 320 321 323 322
316 316 316 317 313 310 314 315 316 315 312 314 314 314 314 317 322 320 319 318 317 315 316 314 312 312 313 313 314 315 315 315 314 316 315 316 316 316 316 318 321 321 319 322 322
314 315 316 317 313 312 317 313 313 313 313 314 314 314 315 316 318 320 318 319 316 315 315 314 315 316 315 315 315 314 315 315 315 317 316 315 315 316 316 317 319 321 322 322 322
314 314 315 316 313 313 315 312 312 313 310 314 315 316 315 315 315 316 316 319 316 315 315 315 316 317 317 316 317 316 316 317 317 317 315 316 317 314 315 315 316 319 321 322 322
314 314 314 315 315 311 313 312 312 316 314 319 317 318 317 315 319 319 319 319 317 318 317 317 318 317 317 317 318 317 318 317 318 316 314 316 313 313 314 316 315 315 320 321 322
314 314 315 315 313 312 312 312 313 315 317 320 319 318 318 318 319 319 320 320 319 318 318 316 318 318 317 318 318 318 317 316 315 313 316 314 314 314 315 317 316 317 319 323 325
314 314 315 314 312 312 311 313 313 316 318 316 316 316 316 315 317 319 320 317 316 318 317 316 317 317 316 314 313 315 318 319 318 316 316 313 315 313 322 325 322 318 318 318 320
314 315 314 313 312 311 312 311 316 317 315 313 314 315 315 315 315 317 315 314 312 314 315 318 318 316 313 312 312 314 321 322 322 318 317 315 316 316 325 324 323 321 319 317 322
313 316 314 314 314 312 312 311 313 312 311 311 313 315 315 314 315 315 314 315 311 310 314 312 317 313 312 313 312 311 312 312 320 320 319 317 319 323 324 324 322 320 319 318 318
313 315 314 314 313 312 309 312 313 310 310 310 312 312 313 311 312 313 314 312 311 310 310 309 310 311 311 313 311 310 310 316 322 324 323 320 320 324 324 322 321 318 317 317 318
313 315 313 314 314 311 308 310 310 309 309 310 310 311 311 311 311 313 314 311 311 309 309 308 308 309 310 310 310 310 309 308 314 324 326 324 319 325 322 320 319 318 317 315 319
311 311 314 314 310 309 307 309 311 309 309 309 309 310 310 311 311 312 313 312 309 308 309 308 306 307 308 308 309 309 309 308 309 311 318 323 319 323 321 319 319 317 315 316 316
310 312 314 312 307 307 309 311 310 310 309 309 309 309 309 309 309 310 310 311 309 309 308 306 303 303 303 305 307 308 308 309 307 307 311 315 314 323 322 320 319 319 320 320 316
311 309 311 311 310 308 308 310 310 310 308 308 308 309 308 308 308 308 309 310 308 309 309 306 304 303 302 304 306 308 308 308 307 307 307 308 308 307 314 320 319 320 319 317 316
311 309 308 306 307 307 307 309 310 309 307 307 307 308 308 307 309 311 310 311 309 309 306 304 305 307 308 310 310 308 308 308 308 308 308 307 307 306 305 307 314 316 313 314 316
309 308 308 307 308 307 307 309 310 307 306 306 306 307 308 308 309 309 307 308 308 309 309 306 306 308 308 309 308 308 307 307 307 308 307 307 306 309 310 310 310 310 313 314 316
307 307 307 306 306 306 305 306 306 306 307 306 305 306 307 307 306 306 306 307 307 306 306 306 305 306 307 307 307 306 306 307 307 308 309 311 310 309 309 309 310 310 311 313 315
Wind_Speed
21 21 20 18 16 15 13 11 10 11 10 9 9 11 13 14 15 18 21 14 11 8 7 7 9 5 7 8 13 9 1 4 6 5 9 19 7 26 27 24 11 14 9 21 17
23 23 22 19 17 15 12 10 9 9 8 8 9 10 13 15 17 18 12 11 11 12 9 7 7 5 4 3 6 6 4 8 8 8 11 13 10 21 20 23 7 14 14 28 28
25 24 25 21 18 16 13 11 9 8 9 9 9 11 13 15 16 1 8 4 6 7 9 10 9 7 8 7 6 3 7 4 12 23 29 16 19 18 11 7 7 5 18 8 20
25 25 24 23 19 16 13 10 10 9 9 9 10 12 13 12 4 3 4 6 3 4 7 12 10 4 3 6 9 4 17 15 22 29 26 11 25 7 13 12 6 10 24 16 20
24 24 23 23 21 17 14 12 11 11 11 12 13 13 13 8 14 9 7 5 3 5 7 8 12 5 3 4 11 5 12 25 28 29 30 30 19 14 13 21 10 14 16 11 29
26 25 23 23 22 19 16 14 14 14 14 14 14 13 11 7 2 1 3 4 8 9 8 8 7 6 9 10 4 15 17 20 24 22 17 7 16 6 17 19 13 6 17 16 19
27 27 25 23 22 20 17 16 16 15 14 14 13 11 12 20 7 6 7 4 3 2 3 4 8 13 8 9 7 6 6 9 9 9 6 11 8 7 18 20 20 15 14 11 30
29 29 27 25 23 22 18 16 17 15 14 13 8 10 11 5 5 15 13 8 4 7 10 9 11 17 11 14 15 6 3 4 8 6 9 2 9 10 22 22 26 25 23 21 15
30 30 29 27 25 23 20 18 17 18 13 10 7 7 13 7 13 14 17 16 9 10 12 8 13 17 12 3 6 6 5 6 9 7 6 4 10 10 22 24 27 31 27 22 23
33 31 30 28 26 23 18 15 16 12 7 7 9 7 14 6 5 10 14 15 16 17 17 15 6 1 3 4 7 5 6 5 7 10 0 9 10 11 28 20 29 36 35 31 26
34 33 32 29 26 22 14 9 7 3 10 13 17 16 23 12 11 14 15 15 13 6 6 6 2 7 10 9 9 7 6 7 9 14 4 8 7 11 21 14 18 30 38 35 32
34 32 33 29 26 16 7 8 7 16 15 24 31 35 38 32 12 12 17 14 8 6 2 3 6 12 8 9 8 9 9 12 10 12 7 8 8 9 6 8 15 18 28 32 24
36 33 31 29 22 5 7 16 13 14 7 28 24 26 30 25 23 30 18 21 6 6 6 8 10 12 12 12 11 13 13 13 15 16 6 5 8 4 8 8 19 21 18 18 19
38 34 30 30 10 10 4 11 14 17 4 8 5 6 11 14 8 29 26 21 6 12 7 6 12 11 12 10 13 13 11 16 10 4 6 4 13 5 6 10 6 17 23 27 29
40 34 31 24 20 9 12 11 9 6 4 3 2 1 11 14 3 12 23 19 11 6 6 7 4 7 7 6 5 9 11 15 13 7 5 3 1 7 4 8 11 12 23 25 25
41 33 30 19 15 7 15 13 4 4 6 7 6 3 4 8 8 3 8 7 7 3 1 5 5 3 5 7 4 6 5 3 1 2 9 6 6 2 2 5 8 14 28 31 26
39 33 21 12 7 12 13 6 4 3 6 8 6 8 4 6 6 1 1 5 2 3 0 3 3 1 8 6 8 9 6 4 4 2 6 8 3 6 6 10 10 15 27 33 41
36 25 11 11 11 14 14 5 1 5 6 10 9 12 4 9 7 9 4 4 12 7 1 2 1 5 9 5 3 4 2 3 5 2 4 5 5 4 4 9 19 23 19 36 47
34 14 14 17 11 9 7 4 2 5 7 9 11 5 6 8 5 8 8 4 6 7 5 3 2 4 16 7 6 7 5 7 4 3 1 4 2 2 7 10 16 22 30 30 39
31 8 15 16 18 7 4 3 2 6 5 5 6 9 9 12 10 7 4 8 3 8 6 2 3 6 6 7 14 7 8 5 4 5 4 4 3 1 7 8 8 15 17 25 37
21 6 17 18 18 2 3 3 3 14 14 5 4 3 4 4 6 7 7 4 5 6 9 2 3 5 5 6 6 2 3 3 2 5 2 3 4 2 2 1 3 6 14 20 25
17 4 17 20 9 4 3 8 10 4 10 6 7 6 5 4 3 3 8 9 3 1 2 2 3 0 2 5 7 2 4 4 3 5 3 4 6 4 5 6 5 8 10 13 18
21 7 13 13 4 4 5 4 9 6 1 2 1 2 2 3 3 2 2 2 6 3 1 2 2 3 6 6 5 3 7 5 4 1 3 2 4 5 4 5 4 2 7 12 11
9 4 7 5 8 4 4 3 5 9 6 6 1 5 3 3 3 4 4 7 5 6 9 6 3 5 4 4 3 7 8 8 2 1 2 4 6 11 5 7 10 13 17 19 15
5 2 5 4 6 10 4 4 5 5 7 12 6 5 5 4 3 3 6 3 5 3 4 4 1 0 2 5 5 8 11 8 9 6 4 6 4 7 13 8 15 23 21 19 18
6 6 6 12 11 6 4 3 1 1 2 3 3 8 5 4 4 3 3 3 2 5 3 2 1 4 4 5 6 9 11 9 7 6 7 7 3 9 14 22 25 22 22 18 18
5 5 4 7 6 4 5 4 5 3 3 7 4 4 4 4 10 10 8 9 8 4 3 5 4 3 5 4 6 6 4 3 5 5 2 3 3 8 12 20 18 26 26 15 22
Wind_Direction
355 354 351 347 340 334 328 323 319 318 317 312 309 307 306 302 298 291 280 282 262 234 235 263 262 269 225 229 228 255 90 223 232 240 269 316 342 321 331 343 143 172 52 243 215
357 355 354 351 348 342 334 326 322 324 325 322 319 315 311 310 308 299 311 259 251 224 238 274 284 237 222 236 223 163 164 230 209 240 277 285 303 312 325 333 323 124 166 253 188
356 356 355 353 351 349 343 334 331 329 325 320 319 321 317 319 320 40 24 39 220 244 255 267 272 266 246 231 227 216 215 221 264 268 273 275 286 298 318 338 102 139 147 190 184
356 355 354 351 347 349 348 339 333 327 321 318 316 315 311 314 305 243 3 335 135 227 277 271 230 215 229 228 238 228 271 263 265 267 271 269 276 281 287 288 317 193 162 141 206
356 354 351 350 344 341 342 338 329 321 312 307 308 307 304 285 267 274 273 271 263 254 271 241 208 204 219 230 255 207 260 269 269 270 271 278 271 258 267 296 321 190 205 180 206
355 353 350 346 343 336 331 327 326 315 306 302 301 295 283 270 224 289 205 300 260 253 250 213 213 229 286 265 185 265 276 276 282 280 276 263 281 266 276 293 303 320 203 226 215
354 351 348 344 339 333 325 319 317 315 311 306 297 287 264 262 244 228 215 304 277 312 215 226 246 259 272 314 322 291 301 312 291 283 279 294 310 278 301 286 286 286 281 232 225
354 350 346 343 336 330 323 310 309 312 306 309 287 289 260 274 224 211 214 221 258 267 273 278 281 277 268 286 304 359 24 317 292 332 295 94 277 269 284 281 280 279 272 273 239
350 347 346 343 335 327 322 312 303 303 291 292 280 282 266 227 229 234 233 238 243 251 250 267 261 272 282 7 351 8 252 298 309 280 257 204 277 262 274 272 260 270 271 262 267
345 343 341 343 336 325 325 314 312 305 275 282 249 289 253 233 234 206 218 231 233 265 257 237 256 281 4 83 245 266 285 280 265 273 184 288 272 285 288 276 260 258 262 265 254
338 338 336 338 339 324 332 336 349 351 308 271 272 249 282 258 287 208 182 204 223 249 170 226 157 230 237 221 223 236 236 249 266 274 213 252 257 267 278 293 272 265 251 253 259
339 335 332 331 337 324 338 349 342 320 298 291 273 261 260 254 290 244 205 197 207 217 171 3 231 230 228 237 239 245 254 272 281 262 185 267 263 265 280 272 286 294 253 245 243
343 338 332 327 335 305 346 11 349 335 294 292 264 251 246 237 240 251 239 208 172 206 213 194 243 228 229 252 249 250 241 252 246 268 282 283 286 310 304 303 313 297 280 273 272
345 342 336 325 339 328 26 359 3 332 14 272 237 257 195 202 233 231 238 230 200 202 213 216 257 244 250 239 247 251 239 239 238 200 250 218 276 300 270 296 293 306 318 309 289
344 344 332 326 314 315 345 350 348 328 335 269 205 174 157 159 214 213 220 231 195 189 142 240 261 290 292 238 249 245 266 261 254 225 180 288 13 265 1 322 300 291 301 303 317
346 343 328 330 324 353 354 343 324 51 258 344 33 298 99 193 252 86 174 162 165 159 259 217 270 216 254 307 7 315 298 276 13 154 253 208 175 256 251 283 316 336 11 25 13
346 340 336 350 351 9 1 5 47 176 325 4 345 340 43 16 359 160 215 34 91 99 18 341 278 302 16 7 359 21 40 334 315 301 234 215 190 223 73 33 40 58 36 30 30
350 352 43 50 38 15 6 51 234 322 359 358 338 319 57 13 22 21 44 71 29 15 114 121 82 33 12 76 301 318 106 158 282 267 290 294 214 186 76 78 71 51 37 38 41
352 13 63 40 359 2 6 51 269 348 354 349 327 3 5 360 20 24 69 61 42 28 80 54 248 7 44 19 34 331 44 281 252 270 228 243 83 23 25 29 45 48 39 30 38
351 21 28 0 346 288 79 226 324 39 4 2 28 23 14 3 21 23 56 7 39 27 89 340 326 19 348 61 30 31 309 346 16 337 292 299 348 93 13 348 32 34 32 40 44
0 6 7 353 345 184 151 231 43 44 33 12 13 20 20 14 8 354 360 24 12 2 57 80 136 299 31 34 313 7 348 303 148 169 218 329 294 13 173 224 13 43 40 45 49
2 4 3 349 44 23 31 318 323 85 45 14 34 49 17 304 262 303 300 316 263 192 128 318 132 50 224 263 291 242 37 10 99 292 198 194 260 91 1 349 356 45 39 48 57
341 309 1 26 71 350 314 302 351 11 0 139 309 91 49 294 306 331 262 277 172 60 82 291 41 11 353 4 21 67 330 319 280 93 254 149 262 151 192 256 226 237 310 312 331
349 350 339 17 36 44 332 315 329 313 39 45 11 338 340 256 217 291 319 32 71 92 69 72 77 136 178 208 286 303 329 345 14 257 229 243 281 310 265 255 263 274 288 294 299
356 313 21 312 340 330 303 279 319 354 25 39 359 31 2 289 311 77 29 28 62 39 62 87 73 57 263 284 295 307 318 310 311 271 252 274 286 313 307 299 275 274 281 283 273
352 349 336 297 301 328 317 254 192 92 55 356 19 314 28 59 20 29 23 37 326 20 70 4 254 38 289 282 288 295 289 278 281 290 320 298 304 359 335 1 1 354 287 266 265
306 287 299 286 323 4 322 12 38 48 57 86 341 351 29 347 334 316 288 257 243 183 189 144 155 118 259 285 327 313 297 289 254 59 297 59 281 346 357 351 5 357 28 321 281